Regional Weather Roundup
Issued by NWS Sioux Falls, SD

Home | Current Version | Previous Version | Text Only | Print | Product List | Glossary On
Versions: 1 2 3 4 5 6 7 8 9 10 11 12 13 14 15 16 17 18 19 20 21 22 23 24 25 26 27 28 29 30 31 32 33 34 35 36 37 38 39 40 41 42 43 44 45 46 47 48 49 50
000
ASUS43 KFSD 230302
RWRFSD

WEATHER ROUNDUP FOR SE SOUTH DAKOTA/SW MINNESOTA/NW IOWA
NATIONAL WEATHER SERVICE SIOUX FALLS SD
1000 PM CDT SUN APR 22 2018

NOTE: "FAIR" INDICATES FEW OR NO CLOUDS BELOW 12,000 FEET WITH NO
SIGNIFICANT WEATHER AND OR OBSTRUCTIONS TO VISIBILITY.


SDZ038>040-050-052>070-230400-
SOUTHEAST SOUTH DAKOTA

CITY           SKY/WX    TMP DP  RH WIND       PRES   REMARKS
BROOKINGS      CLEAR     46  39  76 SE9       30.23R
CHAMBERLAIN    CLEAR     48  42  80 SE6       30.17R
HURON          CLEAR     49  38  65 SE5       30.18R
MADISON        FAIR      45  45 100 SE8       30.22R
MITCHELL       CLEAR     50  40  68 SE8       30.19R
SIOUX FALLS    CLEAR     47  38  71 E6        30.22R
WINNER         FAIR      51  38  60 S10       30.16R
YANKTON        CLEAR     51  40  65 E7        30.20R
$$

MNZ071-072-080-081-089-090-097-098-230400-
SOUTHWEST MINNESOTA

CITY           SKY/WX    TMP DP  RH WIND       PRES   REMARKS
FAIRMONT       CLEAR     43  37  79 E3        30.24R
JACKSON        MOCLDY    39  34  81 VRB3      30.25R
LUVERNE        CLEAR     45  37  76 E5        30.24R
MARSHALL       CLEAR     43  39  86 SW3       30.26R
MONTEVIDEO     CLEAR     46  39  76 CALM      30.26S
PIPESTONE      CLEAR    N/A N/A N/A E5        30.24R
REDWOOD FALLS  CLEAR     49  41  74 CALM      30.25R
TRACY          CLEAR     41  37  85 CALM      30.25R
WINDOM         CLEAR     39  25  56 CALM      30.25R
WORTHINGTON    CLEAR     43  38  82 E6        30.25R
$$

IAZ001>003-012>014-020>022-031-032-NEZ013-014-SDZ071-230400-
NORTHWEST IOWA

CITY           SKY/WX    TMP DP  RH WIND       PRES   REMARKS
DENISON        CLEAR     52  27  37 NE3       30.20R
ESTHERVILLE    CLEAR     38  35  89 NE6       30.23R
LE MARS        CLEAR     50  43  76 NE10      30.21R
ORANGE CITY    CLEAR     48  45  87 E7        30.22S
SHELDON        CLEAR     43  41  93 E7        30.21S
SIOUX CITY     PTCLDY    52  40  63 E12       30.20R
SPENCER        CLOUDY    45  38  76 NE3       30.23R
STORM LAKE     MOCLDY    46  43  87 NE10      30.21S
$$

ABBREVIATIONS USED IN REMARKS
   TC - TEMPERATURE IN CELSIUS
  WCI - WIND CHILL INDEX
   HX - HEAT INDEX
  VSB - VISIBILITY





USA.gov is the U.S. government's official web portal to all federal, state and local government web resources and services.